Powrót do katalogu

ECHOSTAR 21

AktywnyŁącznośćGEO
NORAD 42749·PAYLOAD·🇺🇸 United States

Wystrzelony Jun 8, 2017 z Baikonur Cosmodrome

Loading…

TLE

ŚwieżeSource: Space-Track

Epoka: Sep 14, 2026, 13:51 UTC

1 42749U 17032A   26257.57718102  .00000058  00000-0  00000-0 0  9995
2 42749   1.7817   1.4124 0002341 175.4897  34.6910  1.00272272 33995

Śledź ECHOSTAR 21 w czasie rzeczywistym z AllMySat

Download on the App Store